SWR222 LGIR-LEPA

Flight info

Callsign SWR222
Flight time 3h 3m
Altitude 40000
Route EPALO DCT MONUV DCT BINKO DCT GZO DCT CBN DCT TABOT DCT MORSS
Aircraft A333/H-SDE3GHIJ2J3J5M1RVWXY/LB2D1

Departure

Time 2026-05-04 17:47
Airport Heraklion International Nikos Kazantzakis Airport (LGIR)

Arrival

Time 2026-05-04 20:51
Airport Palma de Mallorca Airport (LEPA)
Time Latitude Longitude Altitude Speed Heading
2026-05-04 17:14 35.33884 25.17166 88 ft 0 kts 150°
2026-05-04 17:43 35.33882 25.17171 89 ft 2 kts 124°
2026-05-04 17:43 35.33884 25.17219 90 ft 4 kts 50°
2026-05-04 17:43 35.33915 25.17265 89 ft 7 kts 53°
2026-05-04 17:43 35.33924 25.17326 90 ft 8 kts 90°
2026-05-04 17:44 35.33924 25.17393 89 ft 8 kts 90°
2026-05-04 17:44 35.33919 25.17458 90 ft 7 kts 98°
2026-05-04 17:44 35.33910 25.17551 96 ft 25 kts 96°
2026-05-04 17:44 35.33884 25.17935 105 ft 58 kts 96°
2026-05-04 17:45 35.33849 25.18416 111 ft 55 kts 95°
2026-05-04 17:45 35.33821 25.18811 116 ft 18 kts 95°
2026-05-04 17:45 35.33818 25.18855 119 ft 1 kts 95°
2026-05-04 17:45 35.33818 25.18867 118 ft 2 kts 90°
2026-05-04 17:46 35.33821 25.18915 120 ft 11 kts 78°
2026-05-04 17:46 35.33874 25.19023 118 ft 11 kts 34°
2026-05-04 17:46 35.33909 25.19005 117 ft 7 kts 292°
2026-05-04 17:46 35.33914 25.18930 116 ft 17 kts 276°
2026-05-04 17:47 35.33943 25.18501 108 ft 86 kts 275°
2026-05-04 17:47 35.34014 25.17500 203 ft 143 kts 276°
2026-05-04 17:47 35.34079 25.16226 920 ft 153 kts 277°
2026-05-04 17:47 35.34465 25.15067 1963 ft 153 kts 319°
2026-05-04 17:48 35.35553 25.14546 2360 ft 188 kts 344°
2026-05-04 17:48 35.36942 25.14242 2831 ft 217 kts 348°
2026-05-04 17:48 35.38473 25.13819 3513 ft 231 kts 341°
2026-05-04 17:48 35.40035 25.13239 4398 ft 236 kts 341°
2026-05-04 17:49 35.41609 25.12630 5390 ft 238 kts 341°
2026-05-04 17:49 35.43186 25.12018 6482 ft 236 kts 342°
2026-05-04 17:49 35.44761 25.11408 7455 ft 240 kts 342°
2026-05-04 17:49 35.46384 25.10779 8311 ft 248 kts 342°
2026-05-04 17:50 35.48029 25.10143 9207 ft 254 kts 342°
2026-05-04 17:50 35.49744 25.09481 10099 ft 261 kts 342°
2026-05-04 17:50 35.51523 25.08793 10661 ft 278 kts 342°
2026-05-04 17:50 35.53450 25.08048 11014 ft 302 kts 342°
2026-05-04 17:51 35.55518 25.07249 11459 ft 319 kts 342°
2026-05-04 17:51 35.56938 25.06700 11903 ft 325 kts 342°
2026-05-04 17:51 35.59134 25.05851 12675 ft 332 kts 343°
2026-05-04 17:51 35.61354 25.04991 13481 ft 338 kts 343°
2026-05-04 17:52 35.63608 25.04118 14272 ft 342 kts 343°
2026-05-04 17:52 35.65862 25.03244 15006 ft 346 kts 343°
2026-05-04 17:52 35.68191 25.02341 15759 ft 350 kts 343°
2026-05-04 17:52 35.70522 25.01415 16490 ft 355 kts 339°
2026-05-04 17:53 35.72584 24.99768 17312 ft 359 kts 316°
2026-05-04 17:53 35.73984 24.97208 18147 ft 367 kts 296°
2026-05-04 17:53 35.74749 24.94168 18842 ft 374 kts 286°
2026-05-04 17:53 35.75244 24.91002 19567 ft 375 kts 284°
2026-05-04 17:54 35.75711 24.87905 20287 ft 374 kts 285°
2026-05-04 17:54 35.76273 24.84768 21026 ft 373 kts 288°
2026-05-04 17:54 35.76936 24.81681 21739 ft 372 kts 290°
2026-05-04 17:54 35.77685 24.78623 22434 ft 372 kts 292°
2026-05-04 17:55 35.78482 24.75606 23118 ft 372 kts 293°
2026-05-04 17:55 35.79317 24.72563 23765 ft 373 kts 293°
2026-05-04 17:55 35.80161 24.69527 24278 ft 375 kts 293°
2026-05-04 17:55 35.81001 24.66502 24772 ft 377 kts 293°
2026-05-04 17:56 35.81846 24.63446 25233 ft 379 kts 293°
2026-05-04 17:56 35.82695 24.60350 25740 ft 381 kts 293°
2026-05-04 17:56 35.83540 24.57250 26235 ft 382 kts 293°
2026-05-04 17:56 35.84388 24.54127 26735 ft 384 kts 293°
2026-05-04 17:57 35.85234 24.50999 27223 ft 385 kts 293°
2026-05-04 17:57 35.86083 24.47856 27707 ft 387 kts 293°
2026-05-04 17:57 35.86926 24.44733 28191 ft 389 kts 293°
2026-05-04 17:57 35.87781 24.41562 28665 ft 391 kts 293°
2026-05-04 17:58 35.88642 24.38367 29096 ft 393 kts 294°
2026-05-04 17:58 35.89505 24.35158 29650 ft 392 kts 294°
2026-05-04 17:58 35.90366 24.31956 30120 ft 394 kts 294°
2026-05-04 17:58 35.91223 24.28765 30470 ft 397 kts 294°
2026-05-04 17:59 35.92097 24.25509 30793 ft 401 kts 294°
2026-05-04 17:59 35.92976 24.22233 31125 ft 404 kts 293°
2026-05-04 17:59 35.94749 24.15605 31796 ft 409 kts 293°
2026-05-04 18:00 35.95644 24.12252 32158 ft 411 kts 293°
2026-05-04 18:00 35.96536 24.08898 32637 ft 409 kts 293°
2026-05-04 18:00 35.97288 24.06068 33018 ft 408 kts 293°
2026-05-04 18:00 35.98173 24.02730 33470 ft 408 kts 293°
2026-05-04 18:01 35.99056 23.99402 33914 ft 408 kts 293°
2026-05-04 18:01 35.99940 23.96067 34301 ft 407 kts 293°
2026-05-04 18:01 36.00821 23.92740 34656 ft 407 kts 292°
2026-05-04 18:02 36.02581 23.86084 35333 ft 408 kts 292°
2026-05-04 18:02 36.03461 23.82753 35656 ft 408 kts 292°
2026-05-04 18:02 36.04342 23.79411 35968 ft 408 kts 292°
2026-05-04 18:02 36.05224 23.76058 36283 ft 409 kts 291°
2026-05-04 18:03 36.06101 23.72724 36588 ft 409 kts 291°
2026-05-04 18:03 36.06968 23.69419 36909 ft 408 kts 291°
2026-05-04 18:03 36.07468 23.67515 37096 ft 409 kts 291°
2026-05-04 18:03 36.08274 23.64436 37383 ft 409 kts 291°
2026-05-04 18:04 36.08920 23.61970 37587 ft 409 kts 291°
2026-05-04 18:04 36.09793 23.58629 37899 ft 409 kts 291°
2026-05-04 18:04 36.11377 23.51899 38472 ft 412 kts 284°
2026-05-04 18:05 36.11763 23.48376 38764 ft 415 kts 277°
2026-05-04 18:05 36.11811 23.44792 38990 ft 418 kts 274°
2026-05-04 18:05 36.11736 23.41178 39176 ft 419 kts 272°
2026-05-04 18:05 36.11601 23.37570 39367 ft 420 kts 271°
2026-05-04 18:06 36.11266 23.30371 39784 ft 421 kts 271°
2026-05-04 18:06 36.11095 23.26753 39984 ft 421 kts 271°
2026-05-04 18:06 36.10929 23.23127 40114 ft 424 kts 271°
2026-05-04 18:07 36.10608 23.15809 40130 ft 427 kts 271°
2026-05-04 18:07 36.10289 23.08457 40125 ft 427 kts 271°
2026-05-04 18:08 36.09969 23.01170 40127 ft 427 kts 271°
2026-05-04 18:08 36.09826 22.97955 40127 ft 427 kts 271°
2026-05-04 18:09 36.09217 22.84441 40129 ft 427 kts 271°
2026-05-04 18:10 36.08879 22.77101 40114 ft 427 kts 271°
2026-05-04 18:10 36.08537 22.69763 40129 ft 427 kts 271°
2026-05-04 18:11 36.08193 22.62470 40130 ft 427 kts 271°
2026-05-04 18:11 36.07841 22.55108 40135 ft 427 kts 271°
2026-05-04 18:12 36.07484 22.47755 40135 ft 427 kts 271°
2026-05-04 18:12 36.07127 22.40473 40137 ft 428 kts 271°
2026-05-04 18:13 36.06763 22.33134 40137 ft 428 kts 271°
2026-05-04 18:14 36.06208 22.22128 40122 ft 428 kts 271°
2026-05-04 18:14 36.05871 22.15545 40146 ft 427 kts 270°
2026-05-04 18:15 36.05202 22.02676 40143 ft 428 kts 270°
2026-05-04 18:16 36.04814 21.95338 40148 ft 428 kts 270°
2026-05-04 18:16 36.04421 21.87975 40143 ft 428 kts 270°
2026-05-04 18:17 36.03827 21.77020 40141 ft 428 kts 270°
2026-05-04 18:18 36.03217 21.65962 40152 ft 429 kts 270°
2026-05-04 18:18 36.02805 21.58565 40155 ft 435 kts 270°
2026-05-04 18:19 36.02167 21.47228 40155 ft 447 kts 270°
2026-05-04 18:19 36.01722 21.39536 40155 ft 447 kts 270°
2026-05-04 18:20 36.01274 21.31886 40155 ft 447 kts 270°
2026-05-04 18:20 36.00823 21.24226 40157 ft 446 kts 270°
2026-05-04 18:21 36.00373 21.16669 40157 ft 444 kts 270°
2026-05-04 18:21 35.99916 21.09059 40161 ft 443 kts 270°
2026-05-04 18:22 35.99459 21.01514 40162 ft 442 kts 270°
2026-05-04 18:22 35.98991 20.93872 40162 ft 442 kts 270°
2026-05-04 18:23 35.98524 20.86342 40162 ft 442 kts 270°
2026-05-04 18:23 35.98051 20.78775 40154 ft 442 kts 270°
2026-05-04 18:24 35.97571 20.71203 40162 ft 440 kts 270°
2026-05-04 18:24 35.97088 20.63651 40168 ft 440 kts 270°
2026-05-04 18:25 35.96606 20.56165 40163 ft 440 kts 270°
2026-05-04 18:25 35.96115 20.48620 40162 ft 440 kts 270°
2026-05-04 18:26 35.95619 20.41089 40166 ft 439 kts 270°
2026-05-04 18:26 35.95123 20.33625 40167 ft 438 kts 270°
2026-05-04 18:27 35.94872 20.29872 40161 ft 437 kts 270°
2026-05-04 18:27 35.94368 20.22387 40169 ft 435 kts 270°
2026-05-04 18:28 35.93862 20.14947 40167 ft 434 kts 270°
2026-05-04 18:28 35.93356 20.07558 40169 ft 434 kts 270°
2026-05-04 18:29 35.92842 20.00133 40171 ft 434 kts 270°
2026-05-04 18:29 35.92325 19.92719 40176 ft 434 kts 270°
2026-05-04 18:30 35.91538 19.81579 40176 ft 434 kts 270°
2026-05-04 18:31 35.91098 19.75415 40172 ft 433 kts 270°
2026-05-04 18:31 35.91002 19.74065 40174 ft 433 kts 270°
2026-05-04 18:32 35.90423 19.66039 40179 ft 433 kts 270°
2026-05-04 18:32 35.89884 19.58627 40179 ft 433 kts 270°
2026-05-04 18:33 35.89341 19.51217 40178 ft 433 kts 270°
2026-05-04 18:33 35.88797 19.43862 40171 ft 433 kts 270°
2026-05-04 18:34 35.88245 19.36464 40177 ft 432 kts 270°
2026-05-04 18:34 35.87689 19.29066 40174 ft 432 kts 270°
2026-05-04 18:35 35.87133 19.21742 40181 ft 431 kts 270°
2026-05-04 18:35 35.86569 19.14351 40182 ft 431 kts 270°
2026-05-04 18:36 35.86001 19.06977 40177 ft 431 kts 270°
2026-05-04 18:36 35.85432 18.99652 40182 ft 431 kts 269°
2026-05-04 18:37 35.84854 18.92279 40180 ft 432 kts 269°
2026-05-04 18:37 35.84371 18.86147 40183 ft 432 kts 269°
2026-05-04 18:38 35.83786 18.78782 40174 ft 432 kts 269°
2026-05-04 18:38 35.83196 18.71422 40183 ft 431 kts 269°
2026-05-04 18:39 35.82603 18.64073 40185 ft 431 kts 269°
2026-05-04 18:39 35.82009 18.56769 40186 ft 431 kts 269°
2026-05-04 18:40 35.81407 18.49408 40185 ft 431 kts 269°
2026-05-04 18:40 35.80803 18.42092 40174 ft 431 kts 269°
2026-05-04 18:41 35.80193 18.34756 40173 ft 430 kts 269°
2026-05-04 18:41 35.79581 18.27455 40187 ft 430 kts 269°
2026-05-04 18:42 35.79089 18.20135 40187 ft 426 kts 274°
2026-05-04 18:42 35.79433 18.12881 40186 ft 424 kts 278°
2026-05-04 18:43 35.79980 18.05648 40185 ft 423 kts 279°
2026-05-04 18:43 35.80564 17.98423 40187 ft 423 kts 279°
2026-05-04 18:44 35.81131 17.91226 40188 ft 423 kts 279°
2026-05-04 18:44 35.81686 17.83997 40186 ft 423 kts 279°
2026-05-04 18:45 35.82232 17.76764 40188 ft 423 kts 279°
2026-05-04 18:45 35.82771 17.69575 40191 ft 424 kts 278°
2026-05-04 18:46 35.83311 17.62314 40188 ft 424 kts 278°
2026-05-04 18:46 35.83846 17.55072 40193 ft 424 kts 278°
2026-05-04 18:47 35.84373 17.47868 40191 ft 424 kts 278°
2026-05-04 18:47 35.84900 17.40613 40186 ft 424 kts 278°
2026-05-04 18:48 35.85422 17.33365 40189 ft 425 kts 278°
2026-05-04 18:48 35.85940 17.26096 40189 ft 425 kts 278°
2026-05-04 18:49 35.86452 17.18874 40188 ft 425 kts 278°
2026-05-04 18:49 35.86962 17.11594 40187 ft 425 kts 278°
2026-05-04 18:50 35.87464 17.04380 40173 ft 425 kts 278°
2026-05-04 18:50 35.87966 16.97113 40187 ft 425 kts 278°
2026-05-04 18:51 35.88463 16.89849 40187 ft 425 kts 278°
2026-05-04 18:51 35.88954 16.82600 40187 ft 425 kts 278°
2026-05-04 18:52 35.89443 16.75322 40184 ft 425 kts 278°
2026-05-04 18:52 35.89928 16.68049 40180 ft 425 kts 278°
2026-05-04 18:53 35.90408 16.60768 40181 ft 425 kts 278°
2026-05-04 18:53 35.90880 16.53537 40181 ft 425 kts 278°
2026-05-04 18:54 35.91352 16.46255 40181 ft 425 kts 278°
2026-05-04 18:54 35.91819 16.38966 40181 ft 425 kts 278°
2026-05-04 18:55 35.92281 16.31692 40183 ft 425 kts 277°
2026-05-04 18:55 35.92963 16.20822 40176 ft 425 kts 277°
2026-05-04 18:56 35.93414 16.13540 40182 ft 425 kts 277°
2026-05-04 18:56 35.93858 16.06313 40179 ft 425 kts 277°
2026-05-04 18:57 35.94300 15.99030 40177 ft 424 kts 277°
2026-05-04 18:57 35.94737 15.91755 40181 ft 425 kts 277°
2026-05-04 18:58 35.95168 15.84518 40177 ft 425 kts 277°
2026-05-04 18:58 35.95596 15.77240 40178 ft 425 kts 277°
2026-05-04 18:59 35.96020 15.69969 40177 ft 425 kts 277°
2026-05-04 18:59 35.96437 15.62729 40170 ft 425 kts 276°
2026-05-04 19:00 35.96854 15.55440 40165 ft 425 kts 276°
2026-05-04 19:00 35.97266 15.48141 40179 ft 425 kts 276°
2026-05-04 19:01 35.97670 15.40887 40179 ft 425 kts 276°
2026-05-04 19:01 35.98073 15.33588 40171 ft 426 kts 276°
2026-05-04 19:02 35.98472 15.26289 40168 ft 426 kts 276°
2026-05-04 19:02 35.98865 15.19010 40171 ft 426 kts 276°
2026-05-04 19:03 35.99255 15.11705 40171 ft 426 kts 276°
2026-05-04 19:03 35.99638 15.04440 40170 ft 426 kts 276°
2026-05-04 19:04 36.00019 14.97134 40171 ft 426 kts 276°
2026-05-04 19:04 36.00395 14.89847 40173 ft 426 kts 275°
2026-05-04 19:05 36.00768 14.82533 40164 ft 426 kts 275°
2026-05-04 19:05 36.01137 14.75207 40169 ft 426 kts 275°
2026-05-04 19:06 36.01498 14.67938 40159 ft 426 kts 275°
2026-05-04 19:06 36.01857 14.60620 40168 ft 426 kts 275°
2026-05-04 19:07 36.02213 14.53283 40170 ft 426 kts 275°
2026-05-04 19:07 36.02562 14.46004 40163 ft 426 kts 275°
2026-05-04 19:08 36.02909 14.38676 40169 ft 426 kts 275°
2026-05-04 19:08 36.03249 14.31391 40159 ft 426 kts 275°
2026-05-04 19:09 36.03604 14.24061 40166 ft 426 kts 277°
2026-05-04 19:09 36.04838 14.16968 40162 ft 425 kts 287°
2026-05-04 19:10 36.06737 14.10045 40164 ft 425 kts 289°
2026-05-04 19:10 36.08760 14.03151 40153 ft 426 kts 289°
2026-05-04 19:11 36.10781 13.96268 40155 ft 426 kts 289°
2026-05-04 19:11 36.12785 13.89362 40155 ft 426 kts 289°
2026-05-04 19:12 36.15759 13.79022 40158 ft 427 kts 289°
2026-05-04 19:13 36.17737 13.72116 40151 ft 427 kts 289°
2026-05-04 19:13 36.19724 13.65169 40153 ft 427 kts 289°
2026-05-04 19:14 36.21708 13.58214 40146 ft 427 kts 289°
2026-05-04 19:14 36.23670 13.51317 40145 ft 427 kts 289°
2026-05-04 19:15 36.25646 13.44356 40153 ft 427 kts 289°
2026-05-04 19:15 36.27609 13.37421 40156 ft 428 kts 289°
2026-05-04 19:16 36.29577 13.30451 40153 ft 428 kts 289°
2026-05-04 19:16 36.31541 13.23476 40138 ft 428 kts 288°
2026-05-04 19:17 36.33486 13.16553 40138 ft 428 kts 288°
2026-05-04 19:17 36.35448 13.09552 40147 ft 429 kts 288°
2026-05-04 19:18 36.37405 13.02551 40140 ft 429 kts 288°
2026-05-04 19:18 36.39358 12.95545 40138 ft 429 kts 288°
2026-05-04 19:19 36.41294 12.88582 40135 ft 429 kts 288°
2026-05-04 19:19 36.43244 12.81550 40133 ft 430 kts 288°
2026-05-04 19:20 36.45190 12.74516 40126 ft 430 kts 288°
2026-05-04 19:20 36.47118 12.67526 40126 ft 430 kts 288°
2026-05-04 19:21 36.49056 12.60483 40128 ft 430 kts 288°
2026-05-04 19:21 36.50993 12.53424 40128 ft 430 kts 288°
2026-05-04 19:22 36.52914 12.46409 40127 ft 430 kts 288°
2026-05-04 19:22 36.54841 12.39350 40124 ft 430 kts 288°
2026-05-04 19:23 36.56439 12.33479 40122 ft 431 kts 288°
2026-05-04 19:23 36.58359 12.26411 40122 ft 431 kts 288°
2026-05-04 19:24 36.60281 12.19320 40122 ft 431 kts 288°
2026-05-04 19:24 36.62194 12.12237 40102 ft 431 kts 288°
2026-05-04 19:25 36.64095 12.05186 40107 ft 431 kts 288°
2026-05-04 19:25 36.65991 11.98130 40116 ft 431 kts 287°
2026-05-04 19:26 36.67893 11.91035 40106 ft 431 kts 287°
2026-05-04 19:26 36.69790 11.83937 40120 ft 431 kts 287°
2026-05-04 19:27 36.71683 11.76836 40136 ft 431 kts 287°
2026-05-04 19:27 36.73562 11.69770 40111 ft 431 kts 287°
2026-05-04 19:28 36.75445 11.62670 40109 ft 431 kts 287°
2026-05-04 19:28 36.77325 11.55561 40098 ft 431 kts 287°
2026-05-04 19:29 36.79189 11.48493 40094 ft 431 kts 287°
2026-05-04 19:29 36.81059 11.41381 40091 ft 431 kts 287°
2026-05-04 19:30 36.82929 11.34249 40093 ft 431 kts 287°
2026-05-04 19:30 36.84782 11.27164 40090 ft 430 kts 287°
2026-05-04 19:31 36.86626 11.20095 40089 ft 429 kts 287°
2026-05-04 19:31 36.88545 11.13008 40088 ft 430 kts 291°
2026-05-04 19:32 36.91524 11.06565 40087 ft 435 kts 306°
2026-05-04 19:32 36.95563 11.00877 40083 ft 437 kts 309°
2026-05-04 19:33 36.99759 10.95415 40088 ft 437 kts 310°
2026-05-04 19:33 37.03990 10.89943 40078 ft 437 kts 310°
2026-05-04 19:34 37.08208 10.84434 40073 ft 437 kts 310°
2026-05-04 19:34 37.12404 10.78913 40074 ft 437 kts 310°
2026-05-04 19:35 37.16570 10.73414 40066 ft 437 kts 310°
2026-05-04 19:35 37.20764 10.67870 40071 ft 437 kts 309°
2026-05-04 19:36 37.24952 10.62327 40075 ft 437 kts 309°
2026-05-04 19:36 37.29109 10.56815 40062 ft 437 kts 309°
2026-05-04 19:37 37.33294 10.51258 40061 ft 437 kts 309°
2026-05-04 19:37 37.37464 10.45710 40064 ft 436 kts 309°
2026-05-04 19:38 37.41625 10.40164 40061 ft 436 kts 309°
2026-05-04 19:38 37.45770 10.34630 40061 ft 436 kts 309°
2026-05-04 19:39 37.49936 10.29059 40061 ft 436 kts 309°
2026-05-04 19:39 37.54108 10.23470 40059 ft 436 kts 309°
2026-05-04 19:40 37.58245 10.17917 40060 ft 436 kts 309°
2026-05-04 19:40 37.62401 10.12330 40058 ft 436 kts 309°
2026-05-04 19:41 37.66527 10.06773 40059 ft 436 kts 308°
2026-05-04 19:41 37.70680 10.01170 40059 ft 436 kts 308°
2026-05-04 19:42 37.74830 9.95562 40057 ft 436 kts 308°
2026-05-04 19:42 37.78969 9.89958 40067 ft 436 kts 308°
2026-05-04 19:43 37.83112 9.84340 40060 ft 436 kts 308°
2026-05-04 19:43 37.87230 9.78744 40056 ft 437 kts 308°
2026-05-04 19:44 37.91391 9.73080 40061 ft 438 kts 308°
2026-05-04 19:44 37.95525 9.67444 40062 ft 438 kts 308°
2026-05-04 19:45 37.99655 9.61804 40061 ft 438 kts 308°
2026-05-04 19:45 38.03806 9.56123 40061 ft 438 kts 308°
2026-05-04 19:46 38.07951 9.50442 40065 ft 438 kts 308°
2026-05-04 19:46 38.12070 9.44786 40064 ft 438 kts 308°
2026-05-04 19:47 38.16200 9.39103 40065 ft 440 kts 308°
2026-05-04 19:47 38.20349 9.33386 40070 ft 440 kts 308°
2026-05-04 19:48 38.24505 9.27648 40066 ft 440 kts 308°
2026-05-04 19:48 38.28635 9.21936 40066 ft 440 kts 308°
2026-05-04 19:49 38.32785 9.16184 40065 ft 441 kts 308°
2026-05-04 19:49 38.36947 9.10406 40064 ft 442 kts 308°
2026-05-04 19:50 38.41091 9.04643 40067 ft 443 kts 308°
2026-05-04 19:50 38.45273 8.98816 40067 ft 444 kts 308°
2026-05-04 19:51 38.49427 8.93017 40064 ft 444 kts 308°
2026-05-04 19:51 38.53598 8.87185 40064 ft 444 kts 308°
2026-05-04 19:52 38.57768 8.81341 40067 ft 445 kts 308°
2026-05-04 19:52 38.61915 8.75518 40061 ft 446 kts 308°
2026-05-04 19:53 38.66093 8.69642 40065 ft 446 kts 308°
2026-05-04 19:53 38.70270 8.63757 40061 ft 446 kts 308°
2026-05-04 19:54 38.74440 8.57870 40043 ft 446 kts 308°
2026-05-04 19:54 38.78595 8.51994 40060 ft 446 kts 308°
2026-05-04 19:55 38.82772 8.46077 40056 ft 446 kts 308°
2026-05-04 19:55 38.86941 8.40157 40052 ft 447 kts 308°
2026-05-04 19:56 38.91086 8.34263 40058 ft 446 kts 308°
2026-05-04 19:56 38.95249 8.28332 40047 ft 446 kts 308°
2026-05-04 19:57 38.99404 8.22400 40050 ft 446 kts 308°
2026-05-04 19:57 39.03555 8.16462 40046 ft 446 kts 308°
2026-05-04 19:58 39.07676 8.10557 40066 ft 446 kts 308°
2026-05-04 19:58 39.11829 8.04594 40048 ft 446 kts 308°
2026-05-04 19:59 39.15306 7.98090 40044 ft 437 kts 290°
2026-05-04 19:59 39.17383 7.90802 40045 ft 435 kts 286°
2026-05-04 20:00 39.19297 7.83413 40043 ft 434 kts 286°
2026-05-04 20:00 39.21198 7.76019 40045 ft 434 kts 286°
2026-05-04 20:01 39.23099 7.68601 40034 ft 434 kts 286°
2026-05-04 20:01 39.24991 7.61197 40034 ft 434 kts 285°
2026-05-04 20:02 39.26869 7.53826 40032 ft 434 kts 285°
2026-05-04 20:02 39.28750 7.46420 40031 ft 433 kts 285°
2026-05-04 20:03 39.30612 7.39069 40031 ft 433 kts 285°
2026-05-04 20:03 39.32480 7.31671 40031 ft 433 kts 285°
2026-05-04 20:04 39.34345 7.24261 40028 ft 433 kts 285°
2026-05-04 20:04 39.36194 7.16891 40046 ft 433 kts 285°
2026-05-04 20:05 39.38048 7.09481 40025 ft 432 kts 285°
2026-05-04 20:05 39.39896 7.02072 40029 ft 432 kts 285°
2026-05-04 20:06 39.41737 6.94668 40027 ft 432 kts 285°
2026-05-04 20:06 39.43562 6.87304 40028 ft 432 kts 285°
2026-05-04 20:07 39.45395 6.79886 40016 ft 432 kts 284°
2026-05-04 20:07 39.47219 6.72486 39801 ft 424 kts 285°
2026-05-04 20:07 39.48121 6.68885 39550 ft 416 kts 284°
2026-05-04 20:08 39.48990 6.65336 39311 ft 409 kts 284°
2026-05-04 20:08 39.49829 6.61891 39078 ft 405 kts 284°
2026-05-04 20:08 39.50676 6.58412 38855 ft 404 kts 284°
2026-05-04 20:08 39.51521 6.54939 38613 ft 404 kts 284°
2026-05-04 20:09 39.52365 6.51470 38127 ft 405 kts 284°
2026-05-04 20:09 39.52940 6.49109 37735 ft 405 kts 284°
2026-05-04 20:09 39.53776 6.45670 37183 ft 406 kts 283°
2026-05-04 20:09 39.54624 6.42178 36641 ft 406 kts 283°
2026-05-04 20:10 39.55472 6.38683 36092 ft 406 kts 283°
2026-05-04 20:10 39.56320 6.35181 35576 ft 407 kts 283°
2026-05-04 20:10 39.57168 6.31678 35054 ft 408 kts 283°
2026-05-04 20:10 39.58017 6.28159 34554 ft 409 kts 283°
2026-05-04 20:11 39.58858 6.24676 34066 ft 409 kts 282°
2026-05-04 20:11 39.59708 6.21143 33510 ft 411 kts 282°
2026-05-04 20:11 39.60560 6.17598 32939 ft 413 kts 282°
2026-05-04 20:11 39.61417 6.14030 32402 ft 416 kts 282°
2026-05-04 20:12 39.62280 6.10429 31853 ft 419 kts 282°
2026-05-04 20:12 39.63147 6.06807 31350 ft 420 kts 282°
2026-05-04 20:12 39.64003 6.03228 30828 ft 419 kts 282°
2026-05-04 20:12 39.64865 5.99625 30328 ft 416 kts 282°
2026-05-04 20:13 39.65720 5.96043 29799 ft 414 kts 281°
2026-05-04 20:13 39.66569 5.92476 29220 ft 411 kts 281°
2026-05-04 20:13 39.67409 5.88944 28636 ft 408 kts 281°
2026-05-04 20:13 39.68171 5.85420 28086 ft 401 kts 277°
2026-05-04 20:14 39.68683 5.81916 27531 ft 396 kts 275°
2026-05-04 20:14 39.69128 5.78411 27002 ft 392 kts 274°
2026-05-04 20:14 39.69548 5.74931 26467 ft 388 kts 274°
2026-05-04 20:14 39.69957 5.71469 25956 ft 385 kts 274°
2026-05-04 20:15 39.70359 5.68039 25457 ft 381 kts 273°
2026-05-04 20:15 39.70753 5.64655 24957 ft 377 kts 273°
2026-05-04 20:15 39.71141 5.61301 24445 ft 373 kts 273°
2026-05-04 20:15 39.71518 5.58023 23990 ft 369 kts 273°
2026-05-04 20:16 39.71896 5.54728 23484 ft 366 kts 273°
2026-05-04 20:16 39.72270 5.51464 22913 ft 364 kts 273°
2026-05-04 20:16 39.72640 5.48214 22354 ft 362 kts 274°
2026-05-04 20:16 39.73007 5.45000 21802 ft 358 kts 274°
2026-05-04 20:17 39.73370 5.41801 21255 ft 357 kts 274°
2026-05-04 20:17 39.73726 5.38650 20760 ft 357 kts 274°
2026-05-04 20:17 39.74087 5.35454 20232 ft 357 kts 274°
2026-05-04 20:17 39.74446 5.32264 19744 ft 356 kts 275°
2026-05-04 20:18 39.74804 5.29088 19237 ft 354 kts 275°
2026-05-04 20:18 39.75160 5.25916 18751 ft 353 kts 275°
2026-05-04 20:18 39.75514 5.22753 18241 ft 352 kts 275°
2026-05-04 20:18 39.75865 5.19612 17688 ft 351 kts 275°
2026-05-04 20:19 39.76211 5.16506 17143 ft 349 kts 275°
2026-05-04 20:19 39.76558 5.13384 16609 ft 347 kts 275°
2026-05-04 20:19 39.76902 5.10282 16056 ft 345 kts 275°
2026-05-04 20:19 39.77243 5.07201 15547 ft 343 kts 275°
2026-05-04 20:20 39.77582 5.04131 15023 ft 341 kts 275°
2026-05-04 20:20 39.77917 5.01085 14529 ft 340 kts 275°
2026-05-04 20:20 39.78247 4.98078 14027 ft 338 kts 275°
2026-05-04 20:20 39.78578 4.95053 13519 ft 336 kts 275°
2026-05-04 20:21 39.78903 4.92077 12982 ft 334 kts 275°
2026-05-04 20:21 39.79226 4.89117 12452 ft 328 kts 275°
2026-05-04 20:21 39.79856 4.83322 11384 ft 318 kts 275°
2026-05-04 20:22 39.80162 4.80496 10863 ft 313 kts 275°
2026-05-04 20:22 39.80463 4.77703 10369 ft 309 kts 275°
2026-05-04 20:22 39.80759 4.74952 9867 ft 305 kts 275°
2026-05-04 20:22 39.81052 4.72225 9337 ft 301 kts 275°
2026-05-04 20:23 39.81335 4.69594 9032 ft 290 kts 275°
2026-05-04 20:23 39.81607 4.67066 8983 ft 273 kts 275°
2026-05-04 20:23 39.81865 4.64669 8808 ft 264 kts 274°
2026-05-04 20:23 39.82112 4.62339 8558 ft 262 kts 274°
2026-05-04 20:24 39.82359 4.59991 8308 ft 261 kts 274°
2026-05-04 20:24 39.82606 4.57656 8069 ft 260 kts 274°
2026-05-04 20:24 39.82853 4.55327 7993 ft 259 kts 274°
2026-05-04 20:24 39.83097 4.53010 7786 ft 257 kts 274°
2026-05-04 20:25 39.83340 4.50703 7554 ft 257 kts 274°
2026-05-04 20:25 39.83582 4.48404 7306 ft 256 kts 273°
2026-05-04 20:25 39.83823 4.46108 7066 ft 255 kts 273°
2026-05-04 20:25 39.84059 4.43854 6829 ft 254 kts 273°
2026-05-04 20:26 39.84298 4.41572 6596 ft 254 kts 273°
2026-05-04 20:26 39.84535 4.39296 6354 ft 253 kts 273°
2026-05-04 20:26 39.84772 4.37029 6094 ft 252 kts 273°
2026-05-04 20:26 39.85007 4.34764 6000 ft 252 kts 273°
2026-05-04 20:27 39.85241 4.32514 5992 ft 251 kts 273°
2026-05-04 20:27 39.85475 4.30258 5990 ft 251 kts 273°
2026-05-04 20:27 39.85708 4.27998 5996 ft 252 kts 273°
2026-05-04 20:27 39.85939 4.25764 6002 ft 252 kts 273°
2026-05-04 20:28 39.86184 4.23493 6411 ft 253 kts 273°
2026-05-04 20:28 39.86201 4.21223 7341 ft 250 kts 259°
2026-05-04 20:28 39.85835 4.19011 8490 ft 250 kts 254°
2026-05-04 20:28 39.85369 4.16801 9399 ft 255 kts 253°
2026-05-04 20:29 39.84887 4.14585 9554 ft 258 kts 253°
2026-05-04 20:29 39.84398 4.12335 9312 ft 259 kts 253°
2026-05-04 20:29 39.83911 4.10081 9053 ft 258 kts 253°
2026-05-04 20:29 39.83427 4.07830 8790 ft 257 kts 253°
2026-05-04 20:30 39.82946 4.05586 8521 ft 256 kts 253°
2026-05-04 20:30 39.82466 4.03349 8307 ft 255 kts 253°
2026-05-04 20:30 39.81989 4.01122 8153 ft 255 kts 253°
2026-05-04 20:30 39.81519 3.98930 8043 ft 254 kts 253°
2026-05-04 20:31 39.81043 3.96715 7912 ft 254 kts 253°
2026-05-04 20:31 39.80567 3.94498 7781 ft 254 kts 253°
2026-05-04 20:31 39.80090 3.92281 7666 ft 254 kts 253°
2026-05-04 20:31 39.79614 3.90069 7423 ft 252 kts 253°
2026-05-04 20:32 39.79142 3.87876 7181 ft 251 kts 253°
2026-05-04 20:32 39.78671 3.85684 6941 ft 251 kts 253°
2026-05-04 20:32 39.78211 3.83497 6700 ft 250 kts 253°
2026-05-04 20:32 39.77759 3.81338 6455 ft 250 kts 253°
2026-05-04 20:33 39.77301 3.79156 6213 ft 251 kts 255°
2026-05-04 20:33 39.76840 3.76954 6010 ft 253 kts 255°
2026-05-04 20:33 39.76379 3.74750 5979 ft 253 kts 254°
2026-05-04 20:33 39.75916 3.72539 5974 ft 252 kts 255°
2026-05-04 20:34 39.75454 3.70338 5974 ft 253 kts 255°
2026-05-04 20:34 39.74992 3.68136 5975 ft 252 kts 254°
2026-05-04 20:34 39.74536 3.65964 5965 ft 251 kts 253°
2026-05-04 20:34 39.74077 3.63787 5970 ft 249 kts 253°
2026-05-04 20:35 39.73619 3.61615 5975 ft 249 kts 253°
2026-05-04 20:35 39.73161 3.59441 5975 ft 250 kts 253°
2026-05-04 20:35 39.72681 3.57173 5980 ft 272 kts 253°
2026-05-04 20:35 39.72184 3.54814 6004 ft 272 kts 255°
2026-05-04 20:36 39.71818 3.52409 6069 ft 269 kts 264°
2026-05-04 20:36 39.72143 3.50078 5973 ft 261 kts 291°
2026-05-04 20:36 39.73273 3.48237 5966 ft 266 kts 315°
2026-05-04 20:36 39.74778 3.46837 5969 ft 270 kts 321°
2026-05-04 20:37 39.76357 3.45503 5981 ft 269 kts 322°
2026-05-04 20:37 39.77918 3.44168 5972 ft 268 kts 322°
2026-05-04 20:37 39.79433 3.42777 5968 ft 264 kts 313°
2026-05-04 20:37 39.80426 3.40834 5968 ft 256 kts 286°
2026-05-04 20:38 39.80626 3.38573 5970 ft 252 kts 266°
2026-05-04 20:38 39.80462 3.36294 5971 ft 253 kts 262°
2026-05-04 20:38 39.80250 3.34049 5970 ft 253 kts 262°
2026-05-04 20:38 39.80033 3.31771 5965 ft 253 kts 262°
2026-05-04 20:39 39.79819 3.29498 5962 ft 253 kts 262°
2026-05-04 20:39 39.79607 3.27227 5965 ft 253 kts 262°
2026-05-04 20:39 39.79391 3.24950 5963 ft 253 kts 262°
2026-05-04 20:39 39.79172 3.22673 5963 ft 253 kts 262°
2026-05-04 20:40 39.78961 3.20434 5770 ft 253 kts 262°
2026-05-04 20:40 39.78745 3.18155 5337 ft 252 kts 262°
2026-05-04 20:40 39.78475 3.15911 4993 ft 248 kts 252°
2026-05-04 20:40 39.77503 3.14147 4806 ft 241 kts 217°
2026-05-04 20:41 39.75977 3.13322 4641 ft 234 kts 202°
2026-05-04 20:41 39.74519 3.12556 4504 ft 216 kts 211°
2026-05-04 20:41 39.73317 3.11576 4305 ft 198 kts 220°
2026-05-04 20:41 39.72311 3.10444 4123 ft 184 kts 227°
2026-05-04 20:42 39.71465 3.09251 3885 ft 174 kts 231°
2026-05-04 20:42 39.70727 3.08100 3789 ft 158 kts 232°
2026-05-04 20:42 39.70087 3.07007 3602 ft 149 kts 236°
2026-05-04 20:42 39.69538 3.05906 3448 ft 141 kts 239°
2026-05-04 20:43 39.69053 3.04831 3369 ft 141 kts 241°
2026-05-04 20:43 39.68558 3.03745 3336 ft 134 kts 239°
2026-05-04 20:43 39.68079 3.02738 3403 ft 130 kts 240°
2026-05-04 20:43 39.67620 3.01735 3409 ft 127 kts 240°
2026-05-04 20:44 39.67143 3.00699 3490 ft 143 kts 240°
2026-05-04 20:44 39.66651 2.99639 3663 ft 132 kts 240°
2026-05-04 20:44 39.66175 2.98637 3797 ft 129 kts 238°
2026-05-04 20:44 39.65685 2.97677 3827 ft 129 kts 238°
2026-05-04 20:45 39.65197 2.96701 3787 ft 129 kts 238°
2026-05-04 20:45 39.64721 2.95717 3605 ft 128 kts 239°
2026-05-04 20:45 39.64254 2.94720 3441 ft 129 kts 240°
2026-05-04 20:45 39.63805 2.93719 3317 ft 128 kts 240°
2026-05-04 20:46 39.63376 2.92725 3200 ft 127 kts 239°
2026-05-04 20:46 39.62879 2.91767 3025 ft 128 kts 235°
2026-05-04 20:46 39.62390 2.90812 2801 ft 126 kts 238°
2026-05-04 20:46 39.61943 2.89826 2688 ft 127 kts 240°
2026-05-04 20:47 39.61499 2.88862 2483 ft 125 kts 239°
2026-05-04 20:47 39.61064 2.87885 2254 ft 126 kts 240°
2026-05-04 20:47 39.60623 2.86913 2015 ft 124 kts 238°
2026-05-04 20:47 39.60169 2.85961 1791 ft 124 kts 237°
2026-05-04 20:48 39.59716 2.85027 1572 ft 123 kts 237°
2026-05-04 20:48 39.59264 2.84082 1369 ft 123 kts 238°
2026-05-04 20:48 39.58837 2.83125 1227 ft 122 kts 236°
2026-05-04 20:48 39.58373 2.82198 1114 ft 123 kts 241°
2026-05-04 20:49 39.57940 2.81242 1017 ft 123 kts 236°
2026-05-04 20:49 39.57476 2.80300 856 ft 126 kts 238°
2026-05-04 20:49 39.57037 2.79296 636 ft 130 kts 237°
2026-05-04 20:49 39.56552 2.78323 416 ft 130 kts 239°
2026-05-04 20:50 39.56085 2.77316 276 ft 130 kts 237°
2026-05-04 20:50 39.55616 2.76319 108 ft 129 kts 237°
2026-05-04 20:50 39.55159 2.75356 42 ft 113 kts 241°
2026-05-04 20:50 39.54821 2.74642 42 ft 65 kts 238°
2026-05-04 20:51 39.54654 2.74289 42 ft 38 kts 238°
2026-05-04 20:51 39.54555 2.73999 42 ft 34 kts 259°
2026-05-04 20:51 39.54550 2.73829 42 ft 0 kts 270°
2026-05-04 20:52 39.54550 2.73826 42 ft 2 kts 270°
2026-05-04 20:52 39.54551 2.73794 42 ft 5 kts 277°
2026-05-04 20:52 39.54570 2.73745 42 ft 7 kts 316°
2026-05-04 20:53 39.54609 2.73752 42 ft 8 kts 39°
2026-05-04 20:53 39.54649 2.73829 42 ft 12 kts 57°
2026-05-04 20:53 39.54698 2.73930 42 ft 11 kts 57°
2026-05-04 20:53 39.54749 2.73952 42 ft 6 kts 345°
2026-05-04 20:54 39.54791 2.73966 42 ft 7 kts 35°
2026-05-04 20:54 39.54838 2.73992 42 ft 7 kts
2026-05-04 20:54 39.54879 2.73972 42 ft 8 kts 333°
2026-05-04 20:54 39.54927 2.73937 42 ft 7 kts 324°
2026-05-04 20:55 39.54938 2.73889 42 ft 5 kts 260°
2026-05-04 20:55 39.54918 2.73850 42 ft 4 kts 240°
2026-05-04 20:55 39.54909 2.73824 42 ft 2 kts 246°
2026-05-04 20:55 39.54906 2.73814 42 ft 0 kts 248°